TVF62VC LFPO-LTFM

Flight info

Callsign TVF62VC
Flight time 2h 59m
Altitude 32999
Route BUBLI DCT LUVAL/N0453F330 DCT BEGAR/N0453F350 DCT TRA DCT GAMSA DCT GEDSO DCT VEKEN DCT GORPA DCT TIVNU DCT VEBAR DCT NISVA DCT DEDIN/N0458F370 DCT AYTEK
Aircraft B738/M-SDE2E3FGHIRWXY/LB1

Departure

Time 2026-05-01 10:50
Airport Paris-Orly Airport (LFPO)

Arrival

Time 2026-05-01 13:50
Airport İstanbul Airport (LTFM)
Time Latitude Longitude Altitude Speed Heading
2026-05-01 10:14 48.72608 2.36271 296 ft 0 kts 344°
2026-05-01 10:39 48.72587 2.36279 294 ft 4 kts 344°
2026-05-01 10:40 48.72565 2.36289 298 ft 2 kts 344°
2026-05-01 10:40 48.72542 2.36302 295 ft 4 kts 324°
2026-05-01 10:40 48.72527 2.36330 297 ft 4 kts 274°
2026-05-01 10:40 48.72531 2.36365 299 ft 3 kts 255°
2026-05-01 10:41 48.72532 2.36371 296 ft 1 kts 255°
2026-05-01 10:44 48.72530 2.36356 299 ft 4 kts 255°
2026-05-01 10:44 48.72521 2.36305 299 ft 5 kts 255°
2026-05-01 10:45 48.72511 2.36255 293 ft 4 kts 253°
2026-05-01 10:45 48.72499 2.36233 296 ft 0 kts 199°
2026-05-01 10:46 48.72455 2.36220 296 ft 10 kts 195°
2026-05-01 10:46 48.72407 2.36139 295 ft 13 kts 251°
2026-05-01 10:46 48.72380 2.36004 297 ft 13 kts 253°
2026-05-01 10:46 48.72355 2.35872 297 ft 13 kts 254°
2026-05-01 10:47 48.72332 2.35743 295 ft 13 kts 254°
2026-05-01 10:47 48.72296 2.35626 293 ft 12 kts 224°
2026-05-01 10:47 48.72218 2.35606 293 ft 12 kts 162°
2026-05-01 10:47 48.72139 2.35641 296 ft 12 kts 164°
2026-05-01 10:48 48.72064 2.35697 295 ft 12 kts 141°
2026-05-01 10:48 48.72016 2.35794 298 ft 12 kts 120°
2026-05-01 10:48 48.71970 2.35894 299 ft 11 kts 127°
2026-05-01 10:48 48.71964 2.35965 295 ft 0 kts 71°
2026-05-01 10:49 48.71966 2.35971 295 ft 3 kts 71°
2026-05-01 10:49 48.72007 2.36177 298 ft 51 kts 75°
2026-05-01 10:49 48.72160 2.37048 295 ft 119 kts 74°
2026-05-01 10:50 48.72434 2.38525 301 ft 173 kts 73°
2026-05-01 10:50 48.72796 2.40469 676 ft 195 kts 75°
2026-05-01 10:50 48.73137 2.42375 1970 ft 178 kts 75°
2026-05-01 10:50 48.73485 2.44167 2896 ft 184 kts 78°
2026-05-01 10:51 48.73851 2.46107 3355 ft 204 kts 78°
2026-05-01 10:51 48.74100 2.48291 3827 ft 214 kts 89°
2026-05-01 10:51 48.74179 2.50599 4567 ft 217 kts 90°
2026-05-01 10:51 48.74248 2.53002 5377 ft 224 kts 90°
2026-05-01 10:52 48.74327 2.55441 5647 ft 248 kts 87°
2026-05-01 10:52 48.74520 2.58115 6284 ft 259 kts 85°
2026-05-01 10:52 48.74752 2.60869 6973 ft 266 kts 85°
2026-05-01 10:52 48.74981 2.63657 7826 ft 269 kts 85°
2026-05-01 10:53 48.75208 2.66486 8629 ft 271 kts 85°
2026-05-01 10:53 48.75439 2.69351 9384 ft 274 kts 85°
2026-05-01 10:53 48.75659 2.72213 10217 ft 277 kts 85°
2026-05-01 10:53 48.75886 2.75169 10714 ft 289 kts 85°
2026-05-01 10:54 48.76125 2.78303 10947 ft 311 kts 85°
2026-05-01 10:54 48.76385 2.81680 11163 ft 332 kts 85°
2026-05-01 10:54 48.76658 2.85250 11529 ft 346 kts 85°
2026-05-01 10:54 48.76946 2.89011 12165 ft 351 kts 85°
2026-05-01 10:55 48.77223 2.92659 12798 ft 356 kts 85°
2026-05-01 10:55 48.77504 2.96399 13491 ft 358 kts 85°
2026-05-01 10:55 48.77835 3.00159 14190 ft 361 kts 82°
2026-05-01 10:55 48.78276 3.03954 14759 ft 366 kts 81°
2026-05-01 10:56 48.78757 3.07795 15295 ft 371 kts 81°
2026-05-01 10:56 48.79243 3.11675 15805 ft 377 kts 81°
2026-05-01 10:56 48.79726 3.15608 16380 ft 380 kts 81°
2026-05-01 10:56 48.80202 3.19552 16976 ft 382 kts 81°
2026-05-01 10:57 48.80684 3.23607 17534 ft 387 kts 82°
2026-05-01 10:57 48.81158 3.27631 18114 ft 389 kts 82°
2026-05-01 10:57 48.81633 3.31679 18702 ft 391 kts 82°
2026-05-01 10:57 48.82109 3.35769 19179 ft 394 kts 82°
2026-05-01 10:58 48.82234 3.39910 19725 ft 393 kts 95°
2026-05-01 10:58 48.81965 3.44094 20255 ft 395 kts 96°
2026-05-01 10:58 48.81668 3.48248 20731 ft 397 kts 97°
2026-05-01 10:58 48.81374 3.52382 21218 ft 399 kts 96°
2026-05-01 10:59 48.81082 3.56610 21731 ft 401 kts 96°
2026-05-01 10:59 48.80797 3.60856 22228 ft 403 kts 96°
2026-05-01 10:59 48.80520 3.65081 22735 ft 404 kts 96°
2026-05-01 10:59 48.80242 3.69350 23192 ft 406 kts 96°
2026-05-01 11:00 48.79966 3.73613 23649 ft 408 kts 96°
2026-05-01 11:00 48.79685 3.77920 24064 ft 410 kts 96°
2026-05-01 11:00 48.79403 3.82223 24438 ft 412 kts 96°
2026-05-01 11:00 48.79117 3.86565 24795 ft 414 kts 96°
2026-05-01 11:01 48.78828 3.90915 25146 ft 416 kts 96°
2026-05-01 11:01 48.78536 3.95287 25482 ft 418 kts 96°
2026-05-01 11:01 48.78240 3.99704 25822 ft 420 kts 96°
2026-05-01 11:01 48.77942 4.04125 26147 ft 422 kts 96°
2026-05-01 11:02 48.77641 4.08555 26449 ft 424 kts 96°
2026-05-01 11:02 48.77253 4.13002 26757 ft 427 kts 103°
2026-05-01 11:02 48.76203 4.17224 27051 ft 430 kts 118°
2026-05-01 11:02 48.74559 4.21015 27389 ft 432 kts 123°
2026-05-01 11:03 48.73395 4.23474 27581 ft 434 kts 124°
2026-05-01 11:03 48.71591 4.27218 27834 ft 437 kts 124°
2026-05-01 11:03 48.69785 4.30956 28102 ft 439 kts 124°
2026-05-01 11:03 48.67992 4.34688 28518 ft 437 kts 124°
2026-05-01 11:04 48.66216 4.38408 29017 ft 434 kts 124°
2026-05-01 11:04 48.64454 4.42118 29459 ft 433 kts 124°
2026-05-01 11:04 48.62698 4.45826 29795 ft 433 kts 124°
2026-05-01 11:04 48.60942 4.49538 30159 ft 433 kts 124°
2026-05-01 11:05 48.59191 4.53238 30529 ft 432 kts 124°
2026-05-01 11:05 48.57443 4.56926 30862 ft 432 kts 124°
2026-05-01 11:05 48.55692 4.60617 31133 ft 432 kts 124°
2026-05-01 11:05 48.53895 4.64397 31419 ft 432 kts 124°
2026-05-01 11:06 48.52134 4.68096 31667 ft 434 kts 124°
2026-05-01 11:06 48.50374 4.71789 31886 ft 435 kts 124°
2026-05-01 11:06 48.48599 4.75505 32127 ft 436 kts 124°
2026-05-01 11:07 48.45058 4.82905 32766 ft 433 kts 124°
2026-05-01 11:07 48.43300 4.86572 33039 ft 433 kts 124°
2026-05-01 11:07 48.41505 4.90311 33288 ft 434 kts 124°
2026-05-01 11:07 48.39738 4.93988 33564 ft 433 kts 124°
2026-05-01 11:08 48.37989 4.97621 33845 ft 432 kts 124°
2026-05-01 11:08 48.36223 5.01287 34099 ft 432 kts 124°
2026-05-01 11:08 48.32687 5.08611 34510 ft 433 kts 124°
2026-05-01 11:09 48.30929 5.12372 34703 ft 433 kts 119°
2026-05-01 11:09 48.29557 5.16319 34874 ft 432 kts 112°
2026-05-01 11:09 48.28539 5.20621 35074 ft 431 kts 103°
2026-05-01 11:10 48.27239 5.29401 35253 ft 433 kts 101°
2026-05-01 11:10 48.26617 5.33768 35268 ft 433 kts 101°
2026-05-01 11:10 48.25330 5.42646 35278 ft 432 kts 102°
2026-05-01 11:11 48.24025 5.51426 35271 ft 431 kts 102°
2026-05-01 11:11 48.22707 5.60158 35282 ft 430 kts 102°
2026-05-01 11:12 48.21378 5.68905 35282 ft 429 kts 102°
2026-05-01 11:12 48.20044 5.77630 35281 ft 430 kts 102°
2026-05-01 11:13 48.18693 5.86427 35288 ft 430 kts 102°
2026-05-01 11:13 48.17341 5.95181 35292 ft 431 kts 102°
2026-05-01 11:14 48.15980 6.03952 35295 ft 432 kts 102°
2026-05-01 11:14 48.14609 6.12729 35293 ft 434 kts 102°
2026-05-01 11:15 48.13216 6.21603 35292 ft 435 kts 102°
2026-05-01 11:15 48.11823 6.30430 35296 ft 436 kts 102°
2026-05-01 11:16 48.10421 6.39270 35289 ft 437 kts 102°
2026-05-01 11:16 48.09008 6.48124 35292 ft 437 kts 102°
2026-05-01 11:17 48.07588 6.56975 35287 ft 437 kts 102°
2026-05-01 11:17 48.06152 6.65886 35293 ft 437 kts 102°
2026-05-01 11:18 48.04721 6.74714 35290 ft 437 kts 102°
2026-05-01 11:18 48.03279 6.83561 35297 ft 437 kts 102°
2026-05-01 11:19 48.01837 6.92362 35301 ft 436 kts 102°
2026-05-01 11:19 48.00389 7.01160 35311 ft 435 kts 102°
2026-05-01 11:20 47.98942 7.09904 35308 ft 434 kts 102°
2026-05-01 11:20 47.97487 7.18650 35319 ft 433 kts 102°
2026-05-01 11:21 47.96020 7.27427 35311 ft 433 kts 102°
2026-05-01 11:21 47.94562 7.36104 35319 ft 433 kts 102°
2026-05-01 11:22 47.93330 7.43400 35317 ft 434 kts 103°
2026-05-01 11:22 47.91849 7.52141 35325 ft 435 kts 103°
2026-05-01 11:23 47.90245 7.60872 35312 ft 438 kts 107°
2026-05-01 11:23 47.88114 7.69402 35317 ft 440 kts 109°
2026-05-01 11:24 47.85891 7.77920 35313 ft 442 kts 109°
2026-05-01 11:25 47.82597 7.90776 35314 ft 444 kts 109°
2026-05-01 11:25 47.79315 8.03666 35318 ft 444 kts 109°
2026-05-01 11:26 47.76036 8.16467 35317 ft 443 kts 109°
2026-05-01 11:27 47.73835 8.25018 35333 ft 442 kts 109°
2026-05-01 11:27 47.71639 8.33519 35325 ft 441 kts 109°
2026-05-01 11:28 47.69417 8.42093 35323 ft 440 kts 108°
2026-05-01 11:28 47.67322 8.50686 35310 ft 445 kts 107°
2026-05-01 11:29 47.64389 8.63901 35324 ft 452 kts 107°
2026-05-01 11:30 47.61364 8.77272 35321 ft 455 kts 107°
2026-05-01 11:30 47.59322 8.86161 35325 ft 455 kts 107°
2026-05-01 11:31 47.57268 8.95059 35323 ft 453 kts 107°
2026-05-01 11:31 47.55295 9.03579 35323 ft 452 kts 107°
2026-05-01 11:32 47.53256 9.12352 35331 ft 450 kts 107°
2026-05-01 11:32 47.51216 9.21091 35322 ft 448 kts 107°
2026-05-01 11:33 47.49177 9.29793 35324 ft 446 kts 107°
2026-05-01 11:33 47.47140 9.38454 35316 ft 445 kts 107°
2026-05-01 11:34 47.45104 9.47076 35328 ft 444 kts 107°
2026-05-01 11:34 47.43060 9.55706 35325 ft 444 kts 107°
2026-05-01 11:35 47.41005 9.64362 35325 ft 444 kts 105°
2026-05-01 11:35 47.39557 9.73175 35322 ft 441 kts 98°
2026-05-01 11:36 47.38405 9.82010 35312 ft 441 kts 98°
2026-05-01 11:36 47.37225 9.90913 35313 ft 443 kts 98°
2026-05-01 11:37 47.36000 9.99820 35315 ft 444 kts 98°
2026-05-01 11:37 47.34747 10.08746 35298 ft 445 kts 98°
2026-05-01 11:38 47.33478 10.17705 35304 ft 445 kts 98°
2026-05-01 11:38 47.32636 10.23621 35300 ft 445 kts 98°
2026-05-01 11:39 47.32333 10.25746 35302 ft 445 kts 98°
2026-05-01 11:39 47.31056 10.34666 35293 ft 445 kts 99°
2026-05-01 11:40 47.29777 10.43561 35278 ft 442 kts 98°
2026-05-01 11:40 47.28495 10.52416 35291 ft 441 kts 98°
2026-05-01 11:41 47.27203 10.61275 35302 ft 439 kts 98°
2026-05-01 11:41 47.25899 10.70187 35298 ft 438 kts 98°
2026-05-01 11:42 47.24621 10.78874 35314 ft 438 kts 98°
2026-05-01 11:42 47.23327 10.87615 35325 ft 438 kts 98°
2026-05-01 11:43 47.22020 10.96386 35333 ft 438 kts 98°
2026-05-01 11:43 47.20707 11.05165 35329 ft 439 kts 98°
2026-05-01 11:44 47.18721 11.18337 35310 ft 441 kts 98°
2026-05-01 11:44 47.17385 11.27128 35335 ft 440 kts 98°
2026-05-01 11:45 47.16038 11.35957 35330 ft 439 kts 98°
2026-05-01 11:45 47.14695 11.44700 35326 ft 438 kts 98°
2026-05-01 11:46 47.13350 11.53414 35327 ft 438 kts 98°
2026-05-01 11:46 47.11998 11.62133 35313 ft 436 kts 98°
2026-05-01 11:47 47.10800 11.69807 35322 ft 434 kts 98°
2026-05-01 11:47 47.09497 11.78130 35327 ft 433 kts 98°
2026-05-01 11:48 47.08075 11.86726 35317 ft 435 kts 103°
2026-05-01 11:48 47.05587 11.94888 35326 ft 441 kts 111°
2026-05-01 11:49 47.02837 12.02904 35313 ft 440 kts 111°
2026-05-01 11:49 47.00106 12.10911 35322 ft 439 kts 111°
2026-05-01 11:50 46.97387 12.18962 35428 ft 442 kts 111°
2026-05-01 11:50 46.94656 12.27058 35707 ft 444 kts 111°
2026-05-01 11:51 46.93271 12.31152 35950 ft 443 kts 111°
2026-05-01 11:51 46.91919 12.35144 36173 ft 442 kts 111°
2026-05-01 11:51 46.90390 12.39652 36422 ft 442 kts 111°
2026-05-01 11:51 46.89144 12.43320 36589 ft 443 kts 111°
2026-05-01 11:52 46.87772 12.47353 36774 ft 443 kts 111°
2026-05-01 11:52 46.86401 12.51373 37033 ft 442 kts 111°
2026-05-01 11:52 46.85025 12.55403 37225 ft 442 kts 111°
2026-05-01 11:52 46.83631 12.59482 37317 ft 442 kts 111°
2026-05-01 11:53 46.80879 12.67515 37324 ft 443 kts 111°
2026-05-01 11:53 46.78116 12.75550 37329 ft 441 kts 111°
2026-05-01 11:54 46.75350 12.83571 37322 ft 442 kts 111°
2026-05-01 11:54 46.72583 12.91574 37334 ft 441 kts 111°
2026-05-01 11:55 46.69793 12.99617 37307 ft 442 kts 111°
2026-05-01 11:55 46.67043 13.07520 37308 ft 439 kts 111°
2026-05-01 11:56 46.64276 13.15447 37334 ft 438 kts 111°
2026-05-01 11:56 46.61496 13.23394 37335 ft 438 kts 111°
2026-05-01 11:57 46.58727 13.31287 37336 ft 439 kts 111°
2026-05-01 11:57 46.55932 13.39210 37347 ft 440 kts 112°
2026-05-01 11:58 46.52957 13.47007 37345 ft 441 kts 114°
2026-05-01 11:59 46.48375 13.58619 37341 ft 442 kts 114°
2026-05-01 11:59 46.45327 13.66384 37361 ft 443 kts 114°
2026-05-01 12:00 46.40758 13.78055 37342 ft 442 kts 114°
2026-05-01 12:01 46.36148 13.89785 37374 ft 442 kts 114°
2026-05-01 12:01 46.33256 13.97118 37368 ft 443 kts 113°
2026-05-01 12:02 46.30189 14.04878 37358 ft 444 kts 114°
2026-05-01 12:02 46.27116 14.12627 37341 ft 444 kts 113°
2026-05-01 12:03 46.24031 14.20376 37359 ft 440 kts 113°
2026-05-01 12:03 46.20979 14.28030 37361 ft 440 kts 113°
2026-05-01 12:04 46.17911 14.35703 37358 ft 442 kts 113°
2026-05-01 12:04 46.14827 14.43395 37361 ft 443 kts 113°
2026-05-01 12:05 46.12231 14.49853 37360 ft 444 kts 113°
2026-05-01 12:05 46.07569 14.61407 37357 ft 445 kts 113°
2026-05-01 12:06 46.04429 14.69163 37368 ft 445 kts 113°
2026-05-01 12:06 46.01309 14.76847 37368 ft 445 kts 113°
2026-05-01 12:07 45.98174 14.84548 37362 ft 445 kts 113°
2026-05-01 12:07 45.95041 14.92223 37359 ft 445 kts 113°
2026-05-01 12:08 45.91900 14.99895 37365 ft 444 kts 113°
2026-05-01 12:08 45.88770 15.07520 37370 ft 443 kts 113°
2026-05-01 12:09 45.85639 15.15129 37372 ft 442 kts 113°
2026-05-01 12:09 45.82505 15.22725 37383 ft 441 kts 114°
2026-05-01 12:10 45.77805 15.34080 37388 ft 441 kts 114°
2026-05-01 12:11 45.72779 15.45323 37381 ft 445 kts 117°
2026-05-01 12:11 45.69316 15.52684 37372 ft 445 kts 117°
2026-05-01 12:12 45.66106 15.59549 37379 ft 444 kts 116°
2026-05-01 12:12 45.62759 15.66744 37370 ft 444 kts 116°
2026-05-01 12:13 45.59338 15.74097 37369 ft 444 kts 116°
2026-05-01 12:13 45.55939 15.81388 37373 ft 444 kts 117°
2026-05-01 12:14 45.52503 15.88736 37369 ft 444 kts 117°
2026-05-01 12:14 45.49003 15.96201 37354 ft 445 kts 117°
2026-05-01 12:15 45.45555 16.03535 37361 ft 445 kts 117°
2026-05-01 12:15 45.42128 16.10806 37367 ft 445 kts 117°
2026-05-01 12:16 45.38618 16.18235 37361 ft 446 kts 117°
2026-05-01 12:16 45.35155 16.25544 37361 ft 446 kts 117°
2026-05-01 12:17 45.31679 16.32861 37353 ft 447 kts 117°
2026-05-01 12:17 45.28188 16.40193 37357 ft 447 kts 118°
2026-05-01 12:18 45.24699 16.47501 37349 ft 448 kts 118°
2026-05-01 12:18 45.21169 16.54877 37354 ft 449 kts 118°
2026-05-01 12:19 45.17680 16.62145 37355 ft 449 kts 118°
2026-05-01 12:19 45.14139 16.69507 37359 ft 450 kts 118°
2026-05-01 12:20 45.10617 16.76810 37361 ft 451 kts 118°
2026-05-01 12:20 45.07071 16.84143 37355 ft 452 kts 118°
2026-05-01 12:21 45.03515 16.91479 37353 ft 452 kts 118°
2026-05-01 12:21 44.99950 16.98818 37336 ft 453 kts 119°
2026-05-01 12:22 44.96390 17.06163 37350 ft 452 kts 116°
2026-05-01 12:22 44.93341 17.13874 37355 ft 449 kts 112°
2026-05-01 12:23 44.90466 17.21702 37347 ft 449 kts 112°
2026-05-01 12:23 44.87566 17.29520 37354 ft 450 kts 112°
2026-05-01 12:24 44.84620 17.37333 37346 ft 451 kts 113°
2026-05-01 12:24 44.81654 17.45127 37356 ft 452 kts 113°
2026-05-01 12:25 44.77182 17.56832 37349 ft 453 kts 113°
2026-05-01 12:26 44.74245 17.64494 37336 ft 453 kts 113°
2026-05-01 12:26 44.69756 17.76166 37342 ft 454 kts 114°
2026-05-01 12:27 44.65204 17.87955 37344 ft 456 kts 114°
2026-05-01 12:28 44.61145 17.98425 37335 ft 457 kts 114°
2026-05-01 12:29 44.56571 18.10174 37340 ft 458 kts 114°
2026-05-01 12:29 44.51970 18.21944 37330 ft 459 kts 115°
2026-05-01 12:30 44.47334 18.33755 37339 ft 459 kts 115°
2026-05-01 12:31 44.44228 18.41641 37326 ft 460 kts 115°
2026-05-01 12:31 44.41151 18.49430 37330 ft 460 kts 115°
2026-05-01 12:32 44.38048 18.57263 37325 ft 460 kts 115°
2026-05-01 12:32 44.33383 18.69001 37320 ft 462 kts 115°
2026-05-01 12:33 44.30253 18.76848 37321 ft 462 kts 116°
2026-05-01 12:33 44.27116 18.84691 37314 ft 462 kts 116°
2026-05-01 12:34 44.23971 18.92531 37323 ft 463 kts 116°
2026-05-01 12:34 44.20821 19.00365 37314 ft 463 kts 116°
2026-05-01 12:35 44.17665 19.08194 37313 ft 464 kts 116°
2026-05-01 12:35 44.14518 19.15978 37319 ft 463 kts 116°
2026-05-01 12:36 44.11720 19.24026 37308 ft 461 kts 109°
2026-05-01 12:36 44.09286 19.32299 37307 ft 462 kts 109°
2026-05-01 12:37 44.06858 19.40588 37300 ft 463 kts 109°
2026-05-01 12:37 44.04383 19.48854 37301 ft 464 kts 110°
2026-05-01 12:38 44.01871 19.57128 37301 ft 464 kts 110°
2026-05-01 12:38 43.99359 19.65353 37304 ft 465 kts 110°
2026-05-01 12:39 43.96827 19.73619 37293 ft 466 kts 110°
2026-05-01 12:39 43.94288 19.81886 37296 ft 466 kts 110°
2026-05-01 12:40 43.91735 19.90175 37306 ft 466 kts 110°
2026-05-01 12:40 43.89185 19.98427 37290 ft 466 kts 110°
2026-05-01 12:41 43.86627 20.06679 37291 ft 465 kts 111°
2026-05-01 12:41 43.84046 20.14977 37288 ft 466 kts 111°
2026-05-01 12:42 43.81481 20.23201 37294 ft 466 kts 111°
2026-05-01 12:42 43.78917 20.31392 37302 ft 466 kts 111°
2026-05-01 12:43 43.76315 20.39681 37291 ft 466 kts 111°
2026-05-01 12:43 43.73739 20.47861 37294 ft 467 kts 111°
2026-05-01 12:44 43.71136 20.56100 37295 ft 468 kts 111°
2026-05-01 12:45 43.65901 20.72591 37291 ft 469 kts 111°
2026-05-01 12:45 43.63273 20.80833 37290 ft 470 kts 112°
2026-05-01 12:46 43.60630 20.89093 37295 ft 470 kts 112°
2026-05-01 12:46 43.57975 20.97367 37284 ft 471 kts 112°
2026-05-01 12:47 43.55313 21.05637 37285 ft 471 kts 112°
2026-05-01 12:47 43.52650 21.13884 37280 ft 472 kts 112°
2026-05-01 12:48 43.49973 21.22147 37286 ft 472 kts 112°
2026-05-01 12:48 43.47255 21.30511 37277 ft 473 kts 112°
2026-05-01 12:49 43.44558 21.38785 37277 ft 473 kts 112°
2026-05-01 12:49 43.41854 21.47055 37279 ft 474 kts 112°
2026-05-01 12:50 43.39147 21.55311 37286 ft 474 kts 113°
2026-05-01 12:50 43.36408 21.63635 37290 ft 475 kts 113°
2026-05-01 12:51 43.33681 21.71898 37291 ft 475 kts 113°
2026-05-01 12:52 43.29564 21.84326 37297 ft 476 kts 113°
2026-05-01 12:52 43.25437 21.96724 37299 ft 477 kts 113°
2026-05-01 12:53 43.21299 22.09100 37285 ft 478 kts 114°
2026-05-01 12:54 43.18504 22.17428 37270 ft 478 kts 114°
2026-05-01 12:54 43.14321 22.29843 37253 ft 478 kts 114°
2026-05-01 12:55 43.10601 22.40837 37250 ft 478 kts 114°
2026-05-01 12:56 43.07801 22.49083 37254 ft 477 kts 114°
2026-05-01 12:56 43.04995 22.57324 37253 ft 477 kts 114°
2026-05-01 12:57 43.02188 22.65542 37258 ft 477 kts 114°
2026-05-01 12:57 42.97969 22.77852 37257 ft 477 kts 115°
2026-05-01 12:58 42.95340 22.86157 37263 ft 477 kts 111°
2026-05-01 12:59 42.91743 22.98840 37268 ft 478 kts 111°
2026-05-01 12:59 42.88091 23.11515 37273 ft 479 kts 111°
2026-05-01 13:00 42.84388 23.24155 37287 ft 480 kts 111°
2026-05-01 13:01 42.80631 23.36912 37293 ft 481 kts 111°
2026-05-01 13:02 42.76879 23.49596 37291 ft 482 kts 112°
2026-05-01 13:07 42.47951 24.42322 37289 ft 486 kts 115°
2026-05-01 13:08 42.45162 24.50654 37293 ft 486 kts 115°
2026-05-01 13:08 42.42349 24.59033 37291 ft 486 kts 115°
2026-05-01 13:09 42.39544 24.67360 37290 ft 486 kts 115°
2026-05-01 13:09 42.36746 24.75636 37292 ft 486 kts 115°
2026-05-01 13:10 42.33903 24.84023 37288 ft 487 kts 115°
2026-05-01 13:10 42.31092 24.92289 37283 ft 487 kts 115°
2026-05-01 13:11 42.28258 25.00597 37278 ft 487 kts 115°
2026-05-01 13:11 42.25416 25.08903 37276 ft 487 kts 116°
2026-05-01 13:12 42.22572 25.17191 37272 ft 487 kts 116°
2026-05-01 13:12 42.19718 25.25486 37263 ft 487 kts 116°
2026-05-01 13:13 42.16856 25.33777 37263 ft 487 kts 116°
2026-05-01 13:13 42.13987 25.42060 37259 ft 488 kts 116°
2026-05-01 13:14 42.11111 25.50343 37259 ft 488 kts 116°
2026-05-01 13:14 42.08228 25.58621 37255 ft 488 kts 116°
2026-05-01 13:15 42.05335 25.66901 37263 ft 488 kts 116°
2026-05-01 13:15 42.02419 25.75226 37256 ft 489 kts 116°
2026-05-01 13:15 42.00964 25.79369 36998 ft 493 kts 116°
2026-05-01 13:16 41.99491 25.83556 36465 ft 495 kts 116°
2026-05-01 13:16 41.98021 25.87730 35866 ft 494 kts 117°
2026-05-01 13:16 41.96546 25.91912 35220 ft 494 kts 117°
2026-05-01 13:17 41.92084 26.04527 33036 ft 496 kts 117°
2026-05-01 13:17 41.90616 26.08665 32589 ft 488 kts 117°
2026-05-01 13:18 41.87717 26.16821 31579 ft 479 kts 117°
2026-05-01 13:18 41.86292 26.20818 31107 ft 474 kts 117°
2026-05-01 13:18 41.84875 26.24790 30633 ft 469 kts 117°
2026-05-01 13:18 41.83475 26.28710 30138 ft 464 kts 117°
2026-05-01 13:19 41.82087 26.32589 29587 ft 459 kts 117°
2026-05-01 13:19 41.80717 26.36426 29117 ft 452 kts 116°
2026-05-01 13:19 41.78518 26.44149 28473 ft 436 kts 109°
2026-05-01 13:20 41.77538 26.48004 28159 ft 428 kts 110°
2026-05-01 13:20 41.76549 26.51744 27837 ft 422 kts 111°
2026-05-01 13:20 41.75548 26.55416 27549 ft 428 kts 111°
2026-05-01 13:21 41.72916 26.62632 27023 ft 427 kts 121°
2026-05-01 13:21 41.71466 26.66080 26655 ft 422 kts 121°
2026-05-01 13:21 41.70033 26.69469 26210 ft 418 kts 121°
2026-05-01 13:21 41.69084 26.71721 25798 ft 418 kts 121°
2026-05-01 13:22 41.67660 26.75125 25223 ft 419 kts 121°
2026-05-01 13:22 41.66246 26.78516 24744 ft 417 kts 121°
2026-05-01 13:22 41.64839 26.81892 24321 ft 414 kts 121°
2026-05-01 13:22 41.63441 26.85240 23903 ft 411 kts 121°
2026-05-01 13:23 41.62048 26.88573 23409 ft 409 kts 121°
2026-05-01 13:23 41.60667 26.91870 22931 ft 405 kts 121°
2026-05-01 13:23 41.59290 26.95152 22479 ft 402 kts 121°
2026-05-01 13:23 41.57934 26.98381 22025 ft 399 kts 121°
2026-05-01 13:24 41.56582 27.01597 21567 ft 396 kts 121°
2026-05-01 13:24 41.55239 27.04786 21124 ft 393 kts 121°
2026-05-01 13:24 41.53901 27.07961 20679 ft 390 kts 121°
2026-05-01 13:25 41.51251 27.14237 19805 ft 385 kts 121°
2026-05-01 13:25 41.49942 27.17333 19380 ft 383 kts 121°
2026-05-01 13:25 41.48629 27.20434 18967 ft 381 kts 121°
2026-05-01 13:25 41.47333 27.23493 18661 ft 375 kts 121°
2026-05-01 13:26 41.46075 27.26462 18606 ft 363 kts 121°
2026-05-01 13:26 41.44846 27.29358 18467 ft 353 kts 121°
2026-05-01 13:26 41.43643 27.32190 18124 ft 350 kts 121°
2026-05-01 13:26 41.42445 27.35005 17677 ft 350 kts 121°
2026-05-01 13:27 41.41242 27.37829 17342 ft 347 kts 121°
2026-05-01 13:27 41.40057 27.40609 16996 ft 344 kts 121°
2026-05-01 13:27 41.37686 27.46164 16215 ft 342 kts 121°
2026-05-01 13:28 41.35360 27.51603 15535 ft 339 kts 121°
2026-05-01 13:28 41.34195 27.54327 15215 ft 337 kts 121°
2026-05-01 13:29 41.31886 27.59713 14564 ft 332 kts 120°
2026-05-01 13:29 41.29606 27.65021 13830 ft 331 kts 120°
2026-05-01 13:30 41.24927 27.75884 12097 ft 342 kts 120°
2026-05-01 13:31 41.22613 27.81245 11213 ft 325 kts 120°
2026-05-01 13:31 41.19236 27.89049 10331 ft 310 kts 120°
2026-05-01 13:32 41.17171 27.93810 10079 ft 293 kts 120°
2026-05-01 13:33 41.14089 28.00903 9272 ft 296 kts 118°
2026-05-01 13:33 41.12040 28.05611 8670 ft 292 kts 118°
2026-05-01 13:34 41.09995 28.10302 8045 ft 290 kts 117°
2026-05-01 13:34 41.08022 28.14814 7423 ft 275 kts 116°
2026-05-01 13:35 41.06171 28.19043 6873 ft 257 kts 114°
2026-05-01 13:35 41.05287 28.21061 6603 ft 249 kts 114°
2026-05-01 13:35 41.03562 28.25008 6071 ft 246 kts 115°
2026-05-01 13:36 41.02702 28.26970 5801 ft 245 kts 114°
2026-05-01 13:36 41.01849 28.28917 5530 ft 244 kts 114°
2026-05-01 13:36 41.00185 28.32702 5273 ft 231 kts 114°
2026-05-01 13:37 40.99397 28.34492 5172 ft 226 kts 113°
2026-05-01 13:37 40.98615 28.36270 5042 ft 219 kts 113°
2026-05-01 13:37 40.97858 28.37986 4988 ft 214 kts 113°
2026-05-01 13:37 40.97121 28.39676 4978 ft 210 kts 112°
2026-05-01 13:38 40.95675 28.43043 4987 ft 213 kts 113°
2026-05-01 13:38 40.94936 28.44765 5011 ft 218 kts 112°
2026-05-01 13:38 40.94177 28.46528 4969 ft 220 kts 113°
2026-05-01 13:39 40.93414 28.48295 4965 ft 217 kts 112°
2026-05-01 13:39 40.92673 28.50010 4973 ft 213 kts 113°
2026-05-01 13:39 40.91942 28.51704 4977 ft 210 kts 112°
2026-05-01 13:39 40.91220 28.53371 4976 ft 209 kts 113°
2026-05-01 13:40 40.90493 28.55052 4995 ft 213 kts 113°
2026-05-01 13:40 40.89754 28.56768 4995 ft 217 kts 113°
2026-05-01 13:40 40.89284 28.58596 4971 ft 203 kts 84°
2026-05-01 13:40 40.89507 28.60397 4976 ft 198 kts 69°
2026-05-01 13:41 40.89943 28.62103 4998 ft 199 kts 68°
2026-05-01 13:41 40.90413 28.63865 4999 ft 203 kts 68°
2026-05-01 13:41 40.90884 28.65643 4996 ft 206 kts 68°
2026-05-01 13:41 40.91352 28.67428 4980 ft 205 kts 68°
2026-05-01 13:42 40.92049 28.69008 4998 ft 197 kts 45°
2026-05-01 13:42 40.93133 28.70086 4999 ft 194 kts 31°
2026-05-01 13:42 40.94311 28.70957 4986 ft 194 kts 30°
2026-05-01 13:42 40.95486 28.71807 4989 ft 191 kts 30°
2026-05-01 13:43 40.96651 28.72652 4990 ft 191 kts 30°
2026-05-01 13:43 40.97904 28.73270 5011 ft 198 kts 10°
2026-05-01 13:43 40.99319 28.73340 4994 ft 209 kts
2026-05-01 13:43 41.00766 28.73297 5002 ft 202 kts
2026-05-01 13:44 41.02120 28.73253 4977 ft 188 kts
2026-05-01 13:44 41.03409 28.73221 4930 ft 187 kts
2026-05-01 13:44 41.04734 28.73195 4687 ft 190 kts
2026-05-01 13:44 41.06048 28.73169 4424 ft 187 kts
2026-05-01 13:45 41.07341 28.73142 4171 ft 184 kts
2026-05-01 13:45 41.08596 28.73118 3909 ft 180 kts
2026-05-01 13:45 41.09820 28.73096 3678 ft 171 kts
2026-05-01 13:45 41.10977 28.73071 3437 ft 161 kts
2026-05-01 13:46 41.12080 28.73050 3204 ft 155 kts
2026-05-01 13:46 41.13152 28.73029 3016 ft 152 kts
2026-05-01 13:46 41.14184 28.73008 2815 ft 145 kts
2026-05-01 13:46 41.15174 28.72989 2591 ft 139 kts
2026-05-01 13:47 41.16110 28.72970 2421 ft 134 kts
2026-05-01 13:47 41.17017 28.72953 2231 ft 127 kts
2026-05-01 13:47 41.17901 28.72937 2056 ft 128 kts
2026-05-01 13:47 41.18787 28.72918 1869 ft 127 kts
2026-05-01 13:48 41.19670 28.72909 1706 ft 126 kts
2026-05-01 13:48 41.20559 28.72885 1552 ft 131 kts
2026-05-01 13:48 41.21480 28.72859 1361 ft 134 kts
2026-05-01 13:48 41.22420 28.72852 1124 ft 136 kts
2026-05-01 13:49 41.23362 28.72835 926 ft 135 kts
2026-05-01 13:49 41.24284 28.72818 731 ft 132 kts
2026-05-01 13:49 41.25208 28.72791 582 ft 129 kts
2026-05-01 13:49 41.26101 28.72767 410 ft 129 kts
2026-05-01 13:50 41.26966 28.72763 331 ft 110 kts
2026-05-01 13:50 41.27517 28.72754 330 ft 47 kts 360°
2026-05-01 13:50 41.27808 28.72744 333 ft 31 kts 358°
2026-05-01 13:50 41.28005 28.72786 333 ft 26 kts 19°
2026-05-01 13:51 41.28114 28.72869 332 ft 15 kts 44°
2026-05-01 13:51 41.28107 28.72958 331 ft 11 kts 149°
2026-05-01 13:51 41.28033 28.72963 331 ft 11 kts 180°
2026-05-01 13:51 41.27960 28.72964 330 ft 10 kts 179°
2026-05-01 13:52 41.27889 28.72966 333 ft 10 kts 179°
2026-05-01 13:52 41.27821 28.72968 332 ft 10 kts 179°
2026-05-01 13:52 41.27754 28.72970 331 ft 9 kts 179°
2026-05-01 13:52 41.27691 28.72972 330 ft 3 kts 179°
2026-05-01 13:54 41.27672 28.72973 330 ft 7 kts 179°
2026-05-01 13:54 41.27614 28.72974 332 ft 9 kts 179°
2026-05-01 13:54 41.27547 28.72976 330 ft 10 kts 179°
2026-05-01 13:55 41.27479 28.72978 329 ft 10 kts 179°
2026-05-01 13:55 41.27407 28.72980 331 ft 11 kts 179°
2026-05-01 13:55 41.27331 28.72983 332 ft 11 kts 179°
2026-05-01 13:55 41.27250 28.72985 332 ft 12 kts 179°
2026-05-01 13:56 41.27166 28.72984 331 ft 12 kts 177°
2026-05-01 13:56 41.27082 28.72986 333 ft 12 kts 180°
2026-05-01 13:56 41.27000 28.72987 331 ft 12 kts 175°
2026-05-01 13:56 41.26950 28.73055 333 ft 11 kts 88°
2026-05-01 13:57 41.26952 28.73157 333 ft 11 kts 88°
2026-05-01 13:57 41.26954 28.73257 333 ft 11 kts 88°
2026-05-01 13:57 41.26956 28.73355 333 ft 10 kts 88°
2026-05-01 13:57 41.26957 28.73451 333 ft 10 kts 89°
2026-05-01 13:58 41.26959 28.73540 330 ft 10 kts 89°
2026-05-01 13:58 41.26960 28.73629 333 ft 9 kts 89°
2026-05-01 13:58 41.26962 28.73715 333 ft 9 kts 89°
2026-05-01 13:58 41.26963 28.73798 333 ft 9 kts 89°
2026-05-01 13:59 41.26964 28.73878 333 ft 9 kts 89°
2026-05-01 13:59 41.26965 28.73955 333 ft 8 kts 89°
2026-05-01 13:59 41.26966 28.74029 333 ft 8 kts 89°
2026-05-01 13:59 41.26967 28.74102 333 ft 8 kts 89°
2026-05-01 14:00 41.26967 28.74170 333 ft 7 kts 89°
2026-05-01 14:00 41.26968 28.74236 333 ft 7 kts 89°
2026-05-01 14:00 41.26969 28.74301 333 ft 7 kts 89°
2026-05-01 14:00 41.26969 28.74363 333 ft 7 kts 89°
2026-05-01 14:01 41.26970 28.74425 333 ft 7 kts 89°
2026-05-01 14:01 41.26970 28.74484 333 ft 6 kts 89°
2026-05-01 14:01 41.26970 28.74543 333 ft 6 kts 93°
2026-05-01 14:01 41.26954 28.74594 331 ft 6 kts 137°
2026-05-01 14:02 41.26914 28.74609 330 ft 6 kts 176°
2026-05-01 14:02 41.26874 28.74612 332 ft 6 kts 176°
2026-05-01 14:02 41.26834 28.74614 329 ft 6 kts 178°
2026-05-01 14:02 41.26796 28.74617 330 ft 5 kts 178°
2026-05-01 14:03 41.26758 28.74618 332 ft 5 kts 178°
2026-05-01 14:03 41.26722 28.74620 330 ft 5 kts 179°
2026-05-01 14:03 41.26686 28.74618 332 ft 5 kts 182°
2026-05-01 14:03 41.26652 28.74617 333 ft 5 kts 181°
2026-05-01 14:04 41.26618 28.74616 331 ft 5 kts 181°
2026-05-01 14:04 41.26571 28.74614 332 ft 7 kts 180°
2026-05-01 14:04 41.26521 28.74607 331 ft 7 kts 195°
2026-05-01 14:04 41.26474 28.74587 333 ft 7 kts 198°
2026-05-01 14:05 41.26428 28.74577 333 ft 7 kts 182°
2026-05-01 14:05 41.26386 28.74574 332 ft 6 kts 182°
2026-05-01 14:05 41.26358 28.74574 332 ft 0 kts 179°